EN

Hourly Weather Celinnyy

Today, 27 October, Tuesday

Time Temperature Precipitation Wind Pressure Humidity
00:00 +10°C° 0 mm 4 mps 756 mmHg 73%
01:00 +10°C° 0 mm 4 mps 756 mmHg 76%
02:00 +8°C° 0 mm 4 mps 756 mmHg 79%
03:00 +8°C° 0 mm 4 mps 757 mmHg 82%
04:00 +7°C° 0 mm 4 mps 757 mmHg 81%
05:00 +7°C° 0 mm 4 mps 757 mmHg 81%
06:00 +7°C° 0 mm 4 mps 757 mmHg 80%
07:00 +8°C° 0 mm 4 mps 757 mmHg 74%
08:00 +10°C° 0 mm 5 mps 757 mmHg 69%
09:00 +11°C° 0 mm 6 mps 757 mmHg 63%
10:00 +13°C° 0 mm 6 mps 757 mmHg 58%
11:00 +15°C° 0 mm 6 mps 757 mmHg 53%
12:00 +16°C° 0 mm 6 mps 757 mmHg 48%
13:00 +17°C° 0 mm 7 mps 757 mmHg 46%
14:00 +17°C° 0 mm 7 mps 757 mmHg 45%
15:00 +17°C° 0 mm 8 mps 757 mmHg 43%
16:00 +16°C° 0 mm 7 mps 757 mmHg 49%
17:00 +14°C° 0 mm 7 mps 757 mmHg 55%
18:00 +12°C° 0 mm 7 mps 758 mmHg 61%
19:00 +11°C° 0 mm 7 mps 758 mmHg 65%
20:00 +10°C° 0 mm 7 mps 758 mmHg 69%
21:00 +9°C° 0 mm 7 mps 758 mmHg 73%
22:00 +9°C° 0 mm 7 mps 758 mmHg 75%
23:00 +9°C° 0 mm 7 mps 758 mmHg 76%

Tomorrow, 28 October, Wednesday

Time Temperature Precipitation Wind Pressure Humidity
00:00 +8°C° 0 mm 6 mps 758 mmHg 77%
01:00 +9°C° 0 mm 7 mps 758 mmHg 76%
02:00 +9°C° 0 mm 7 mps 758 mmHg 75%
03:00 +9°C° 0 mm 7 mps 757 mmHg 75%
04:00 +9°C° 0 mm 8 mps 757 mmHg 75%
05:00 +9°C° 0 mm 8 mps 757 mmHg 76%
06:00 +9°C° 0 mm 8 mps 757 mmHg 77%
07:00 +10°C° 0 mm 8 mps 757 mmHg 74%
08:00 +11°C° 0 mm 8 mps 757 mmHg 72%
09:00 +12°C° 0 mm 9 mps 757 mmHg 69%
10:00 +13°C° 0 mm 9 mps 757 mmHg 65%
11:00 +16°C° 0 mm 8 mps 756 mmHg 61%
12:00 +17°C° 0 mm 8 mps 756 mmHg 57%
13:00 +17°C° 0 mm 8 mps 756 mmHg 56%
14:00 +18°C° 0 mm 8 mps 755 mmHg 54%
15:00 +18°C° 0 mm 8 mps 755 mmHg 53%
16:00 +17°C° 0 mm 8 mps 755 mmHg 58%
17:00 +15°C° 0 mm 7 mps 755 mmHg 62%
18:00 +14°C° 0 mm 7 mps 755 mmHg 67%
19:00 +12°C° 0 mm 7 mps 755 mmHg 71%
20:00 +12°C° 0 mm 7 mps 755 mmHg 75%
21:00 +11°C° 0 mm 7 mps 755 mmHg 79%
22:00 +11°C° 0 mm 7 mps 755 mmHg 80%
23:00 +12°C° 0 mm 7 mps 755 mmHg 80%

Day after tomorrow, 29 October, Thursday

Time Temperature Precipitation Wind Pressure Humidity
00:00 +12°C° 0 mm 7 mps 755 mmHg 81%
01:00 +12°C° 0 mm 7 mps 754 mmHg 80%
02:00 +14°C° 0 mm 6 mps 754 mmHg 79%
03:00 +14°C° 0 mm 6 mps 754 mmHg 78%
04:00 +14°C° 0 mm 6 mps 754 mmHg 79%
05:00 +14°C° 0 mm 6 mps 754 mmHg 79%
06:00 +14°C° 0 mm 6 mps 754 mmHg 80%
07:00 +14°C° 0 mm 6 mps 754 mmHg 79%
08:00 +15°C° 0 mm 7 mps 754 mmHg 78%
09:00 +15°C° 0 mm 7 mps 754 mmHg 77%
10:00 +16°C° 0 mm 7 mps 753 mmHg 75%
11:00 +17°C° 0 mm 7 mps 753 mmHg 73%
12:00 +18°C° 0 mm 7 mps 753 mmHg 71%
13:00 +18°C° 0 mm 8 mps 753 mmHg 69%
14:00 +18°C° 0 mm 8 mps 753 mmHg 67%
15:00 +20°C° 0 mm 8 mps 752 mmHg 64%
16:00 +18°C° 0 mm 7 mps 753 mmHg 68%
17:00 +17°C° 0 mm 7 mps 753 mmHg 72%
18:00 +16°C° 0 mm 6 mps 753 mmHg 77%
19:00 +15°C° 0 mm 6 mps 753 mmHg 79%
20:00 +15°C° 0 mm 6 mps 753 mmHg 81%
21:00 +14°C° 0 mm 5 mps 753 mmHg 83%
22:00 +14°C° 0 mm 5 mps 752 mmHg 85%
23:00 +13°C° 0 mm 4 mps 752 mmHg 87%

30 October, Friday

Time Temperature Precipitation Wind Pressure Humidity
00:00 +13°C° 0 mm 4 mps 752 mmHg 89%
01:00 +13°C° 0 mm 4 mps 751 mmHg 86%
02:00 +14°C° 0 mm 5 mps 751 mmHg 83%
03:00 +15°C° 0 mm 5 mps 751 mmHg 80%
04:00 +14°C° 0 mm 4 mps 751 mmHg 81%
05:00 +14°C° 0 mm 3 mps 751 mmHg 82%
06:00 +15°C° 0 mm 1 mps 752 mmHg 83%
07:00 +15°C° 0 mm 2 mps 752 mmHg 82%
08:00 +16°C° 0 mm 2 mps 752 mmHg 80%
09:00 +16°C° 0 mm 2 mps 753 mmHg 78%
10:00 +17°C° 0 mm 2 mps 752 mmHg 71%
11:00 +18°C° 0 mm 2 mps 752 mmHg 65%
12:00 +20°C° 0 mm 2 mps 752 mmHg 59%
13:00 +20°C° 0 mm 2 mps 752 mmHg 57%
14:00 +20°C° 0 mm 2 mps 752 mmHg 55%
15:00 +21°C° 0 mm 2 mps 752 mmHg 53%
16:00 +19°C° 0 mm 2 mps 752 mmHg 60%
17:00 +18°C° 0 mm 2 mps 753 mmHg 67%
18:00 +17°C° 0 mm 2 mps 753 mmHg 74%
19:00 +16°C° 0 mm 2 mps 753 mmHg 79%
20:00 +15°C° 0 mm 2 mps 753 mmHg 83%
21:00 +14°C° 0 mm 2 mps 753 mmHg 87%
22:00 +14°C° 0 mm 2 mps 753 mmHg 89%
23:00 +14°C° 0 mm 2 mps 753 mmHg 91%

31 October, Saturday

Time Temperature Precipitation Wind Pressure Humidity
00:00 +13°C° 0 mm 2 mps 753 mmHg 92%
01:00 +13°C° 0 mm 1 mps 753 mmHg 93%
02:00 +13°C° 0 mm 1 mps 753 mmHg 93%
03:00 +12°C° 0 mm 1 mps 752 mmHg 94%
04:00 +12°C° 0 mm 1 mps 753 mmHg 94%
05:00 +12°C° 0 mm 1 mps 753 mmHg 95%
06:00 +12°C° 0 mm 1 mps 753 mmHg 95%
07:00 +13°C° 0 mm 1 mps 753 mmHg 91%
08:00 +14°C° 0 mm 2 mps 753 mmHg 86%
09:00 +15°C° 0 mm 2 mps 753 mmHg 82%
10:00 +17°C° 0 mm 2 mps 753 mmHg 74%
11:00 +19°C° 0 mm 2 mps 752 mmHg 66%
12:00 +20°C° 0 mm 3 mps 752 mmHg 57%
13:00 +21°C° 0 mm 3 mps 752 mmHg 56%
14:00 +21°C° 0 mm 4 mps 752 mmHg 54%
15:00 +21°C° 0 mm 4 mps 752 mmHg 52%
16:00 +20°C° 0 mm 4 mps 752 mmHg 60%
17:00 +18°C° 0 mm 4 mps 752 mmHg 68%
18:00 +15°C° 0 mm 4 mps 753 mmHg 76%
19:00 +16°C° 0 mm 3 mps 753 mmHg 80%
20:00 +14°C° 0 mm 3 mps 753 mmHg 83%
21:00 +13°C° 0 mm 3 mps 753 mmHg 86%
22:00 +13°C° 0 mm 3 mps 753 mmHg 88%
23:00 +12°C° 0 mm 3 mps 753 mmHg 90%

1 November, Sunday

Time Temperature Precipitation Wind Pressure Humidity
00:00 +12°C° 0 mm 3 mps 753 mmHg 92%
01:00 +12°C° 0 mm 3 mps 753 mmHg 93%
02:00 +11°C° 0 mm 3 mps 753 mmHg 94%
03:00 +11°C° 0 mm 3 mps 753 mmHg 94%
04:00 +11°C° 0 mm 3 mps 753 mmHg 95%
05:00 +11°C° 0 mm 3 mps 753 mmHg 96%
06:00 +11°C° 0 mm 3 mps 753 mmHg 96%
07:00 +12°C° 0 mm 4 mps 753 mmHg 90%
08:00 +12°C° 0 mm 5 mps 753 mmHg 84%
09:00 +13°C° 0 mm 5 mps 753 mmHg 77%
10:00 +15°C° 0 mm 5 mps 753 mmHg 68%
11:00 +16°C° 0 mm 6 mps 753 mmHg 58%
12:00 +19°C° 0 mm 6 mps 753 mmHg 49%
13:00 +20°C° 0 mm 6 mps 753 mmHg 44%
14:00 +20°C° 0 mm 5 mps 753 mmHg 38%
15:00 +21°C° 0 mm 5 mps 753 mmHg 33%
16:00 +19°C° 0 mm 4 mps 754 mmHg 36%
17:00 +18°C° 0 mm 4 mps 754 mmHg 38%
18:00 +16°C° 0 mm 3 mps 755 mmHg 41%
19:00 +16°C° 0 mm 3 mps 755 mmHg 42%
20:00 +14°C° 0 mm 3 mps 755 mmHg 42%
21:00 +14°C° 0 mm 3 mps 755 mmHg 43%
22:00 +13°C° 0 mm 3 mps 755 mmHg 53%
23:00 +12°C° 0 mm 4 mps 755 mmHg 63%
Show more

We Need Your Consent

Meteoprog and our Service Providers may store and access personal data such as cookies, device identifiers or other similar technologies on your device and process such data to personalise content and ads, as well as provide social media features and to analyse the traffic.

  • Store and/or access information on your device

    Cookies, device identifiers or other information can be stored or accessed on your device for the purposes indicated above.

  • Personalised ads and content, ad and content measurement, audience insights, and products development

    Ads and content can be personalised based on a profile. More data can be added to better personalise ads and content. Ad and content performance can be measured. Insights about the audience who saw the ads and content can be derived. Such data can be used to develop or improve user’s experience, systems and software.

By clicking ‘I Agree’ you will allow the use of indicated cookies, device identifiers, web beacons or other similar technologies. Your settings can be changed in the browser on your device.

For certain purposes, legitimate interests may be relied on, rather than consent. You can read more about this in our Privacy and Cookie Policy.